2011-04-07 00:00,8.78,
2011-04-08 00:00,8.31,
2011-04-09 00:00,8.31,
2011-04-10 00:00,8.54,
2011-04-11 00:00,8.46,
2011-04-12 00:00,8.29,
2011-04-13 00:00,8.41,
2011-04-14 00:00,8.51,
2011-04-15 00:00,8.05,
2011-04-16 00:00,7.09,
2011-04-17 00:00,6.65,
2011-04-18 00:00,8.75,
2011-04-19 00:00,9.46,
2011-04-20 00:00,10.02,
2011-04-21 00:00,10.97,
2011-04-22 00:00,11.95,
2011-04-23 00:00,12.56,
2011-04-24 00:00,13.83,
2011-04-25 00:00,13.83,
2011-04-26 00:00,13.43,
2011-04-27 00:00,13.07,
2011-04-28 00:00,12.57,
2011-04-29 00:00,12.80,
2011-04-30 00:00,13.75,
2011-05-01 00:00,14.15,
2011-05-02 00:00,14.64,
2011-05-03 00:00,14.21,
2011-05-04 00:00,12.15,
2011-05-05 00:00,10.75,
2011-05-06 00:00,9.15,
2011-05-07 00:00,9.40,
2011-05-08 00:00,11.30,
2011-05-09 00:00,11.95,
2011-05-10 00:00,11.60,
2011-05-11 00:00,11.32,
2011-05-12 00:00,11.45,
2011-05-13 00:00,11.75,
2011-05-14 00:00,13.36,
2011-05-15 00:00,15.44,
2011-05-16 00:00,17.30,
2011-05-17 00:00,16.94,
2011-05-18 00:00,17.36,
2011-05-19 00:00,15.45,
2011-05-20 00:00,13.17,
2011-05-21 00:00,14.72,
2011-05-22 00:00,15.33,
2011-05-23 00:00,15.72,
2011-05-24 00:00,16.35,
2011-05-25 00:00,17.53,
2011-05-26 00:00,16.57,
2011-05-27 00:00,14.12,
2011-05-28 00:00,12.28,
2011-05-29 00:00,15.11,
2011-05-30 00:00,16.66,
2011-05-31 00:00,17.46,
2011-06-01 00:00,18.35,
2011-06-02 00:00,18.01,
2011-06-03 00:00,18.60,
2011-06-04 00:00,18.43,
2011-06-05 00:00,19.26,
2011-06-06 00:00,18.56,
2011-06-07 00:00,18.33,
2011-06-08 00:00,17.67,
2011-06-09 00:00,17.26,
2011-06-10 00:00,16.41,
2011-06-11 00:00,15.48,
2011-06-12 00:00,14.15,
2011-06-13 00:00,12.82,
2011-06-14 00:00,14.71,
2011-06-15 00:00,14.83,
2011-06-16 00:00,14.49,
2011-06-17 00:00,15.69,
2011-06-18 00:00,15.49,
2011-06-19 00:00,16.20,
2011-06-20 00:00,16.25,
2011-06-21 00:00,16.61,
2011-06-22 00:00,13.14,
2011-06-23 00:00,12.32,
2011-06-24 00:00,12.45,
2011-06-25 00:00,12.11,
2011-06-26 00:00,11.04,
2011-06-27 00:00,10.65,
2011-06-28 00:00,12.08,
2011-06-29 00:00,13.17,
2011-06-30 00:00,13.02,
2011-07-01 00:00,12.96,
2011-07-02 00:00,13.18,
2011-07-03 00:00,13.19,
2011-07-04 00:00,11.90,
2011-07-05 00:00,13.42,
2011-07-06 00:00,13.96,
2011-07-07 00:00,11.75,
2011-07-08 00:00,12.50,
2011-07-09 00:00,12.19,
2011-07-10 00:00,12.39,
2011-07-11 00:00,11.55,
2011-07-12 00:00,11.59,
2011-07-13 00:00,12.05,
2011-07-14 00:00,12.01,
2011-07-15 00:00,12.16,
2011-07-16 00:00,11.38,
2011-07-17 00:00,11.91,
2011-07-18 00:00,11.79,
2011-07-19 00:00,11.27,
2011-07-20 00:00,11.96,
2011-07-21 00:00,10.51,
2011-07-22 00:00,8.18,
2011-07-23 00:00,7.83,
2011-07-24 00:00,9.43,
2011-07-25 00:00,10.80,
2011-07-26 00:00,10.17,
2011-07-27 00:00,11.73,
2011-07-28 00:00,11.41,
2011-07-29 00:00,11.27,
2011-07-30 00:00,10.92,
2011-07-31 00:00,10.89,
2011-08-01 00:00,11.81,
2011-08-02 00:00,11.88,
2011-08-03 00:00,9.37,
2011-08-04 00:00,8.94,
2011-08-05 00:00,9.04,
2011-08-06 00:00,9.17,
2011-08-07 00:00,10.45,
2011-08-08 00:00,11.26,
2011-08-09 00:00,9.72,
2011-08-10 00:00,9.74,
2011-08-11 00:00,9.08,
2011-08-12 00:00,5.28,
2011-08-13 00:00,9.94,
2011-08-14 00:00,11.97,
2011-08-15 00:00,12.10,
2011-08-16 00:00,11.85,
2011-08-17 00:00,11.38,
2011-08-18 00:00,8.43,
2011-08-19 00:00,7.63,
2011-08-20 00:00,6.26,
2011-08-21 00:00,7.36,
2011-08-22 00:00,8.07,
2011-08-23 00:00,7.75,
2011-08-24 00:00,8.42,
2011-08-25 00:00,8.09,
2011-08-26 00:00,7.06,
2011-08-27 00:00,6.40,
2011-08-28 00:00,6.21,
2011-08-29 00:00,6.64,
2011-08-30 00:00,5.86,
2011-08-31 00:00,7.58,
2011-09-01 00:00,8.17,
2011-09-02 00:00,7.99,
2011-09-03 00:00,7.51,
2011-09-04 00:00,6.75,
2011-09-05 00:00,5.88,
2011-09-06 00:00,6.16,
2011-09-07 00:00,7.44,
2011-09-08 00:00,7.01,
2011-09-09 00:00,7.67,
2011-09-10 00:00,8.24,
2011-09-11 00:00,7.01,
2011-09-12 00:00,7.37,
2011-09-13 00:00,5.91,
2011-09-14 00:00,5.65,
2011-09-15 00:00,5.83,
2011-09-16 00:00,7.14,
2011-09-17 00:00,5.59,
2011-09-18 00:00,6.76,
2011-09-19 00:00,7.18,
2011-09-20 00:00,8.18,
2011-09-21 00:00,7.38,
2011-09-22 00:00,6.31,
2011-09-23 00:00,6.53,
2011-09-24 00:00,6.58,
2011-09-25 00:00,7.79,
2011-09-26 00:00,7.63,
2011-09-27 00:00,6.84,
2011-09-28 00:00,7.00,
2011-09-29 00:00,8.52,
2011-09-30 00:00,8.88,
2011-10-01 00:00,9.24,
2011-10-02 00:00,8.89,
2011-10-03 00:00,10.27,
2011-10-04 00:00,9.80,
2011-10-05 00:00,10.44,
2011-10-06 00:00,11.20,
2011-10-07 00:00,11.59,
2011-10-12 00:00,10.54,
2011-10-13 00:00,10.10,
2011-10-14 00:00,11.19,
2011-10-15 00:00,9.59,
2011-10-16 00:00,8.63,
2011-10-17 00:00,7.10,
2011-10-18 00:00,8.93,
2011-10-19 00:00,11.16,
2011-10-20 00:00,13.45,
2011-10-21 00:00,14.59,
2011-10-22 00:00,14.42,
2011-10-23 00:00,13.75,
2011-10-24 00:00,13.15,
2011-10-25 00:00,12.24,
2011-10-26 00:00,12.15,
2011-10-27 00:00,10.61,
2011-10-28 00:00,9.74,
2011-10-29 00:00,9.48,
2011-10-30 00:00,9.58,
2011-10-31 00:00,10.01,
2011-11-01 00:00,10.57,
2011-11-02 00:00,12.46,
2011-11-03 00:00,11.81,
2011-11-04 00:00,12.06,
2011-11-05 00:00,12.25,
2011-11-06 00:00,12.70,
2011-11-07 00:00,13.59,
2011-11-08 00:00,14.24,
2011-11-09 00:00,12.53,
2011-11-10 00:00,13.43,
2011-11-11 00:00,13.04,
2011-11-12 00:00,10.43,
2011-11-13 00:00,9.25,
2011-11-14 00:00,7.99,
2011-11-15 00:00,7.86,
2011-11-16 00:00,8.44,
2011-11-17 00:00,9.51,
2011-11-18 00:00,9.93,
2011-11-19 00:00,10.46,
2011-11-20 00:00,12.18,
2011-11-21 00:00,12.38,
2011-11-22 00:00,13.35,
2011-11-23 00:00,12.57,
2011-11-24 00:00,13.56,
2011-11-25 00:00,13.15,
2011-11-26 00:00,12.24,
2011-11-27 00:00,11.66,
2011-11-28 00:00,11.12,
2011-11-29 00:00,12.53,
2011-11-30 00:00,11.89,
2011-12-01 00:00,12.06,
2011-12-02 00:00,12.64,
2011-12-03 00:00,13.65,
2011-12-04 00:00,13.14,
2011-12-05 00:00,12.79,
2011-12-06 00:00,10.77,
2011-12-07 00:00,11.46,
2011-12-08 00:00,12.49,
2011-12-09 00:00,9.98,
2011-12-10 00:00,9.49,
2011-12-11 00:00,9.35,
2011-12-12 00:00,6.94,
2011-12-13 00:00,7.58,
2011-12-14 00:00,9.28,
2011-12-15 00:00,12.08,
2011-12-16 00:00,11.92,
2011-12-17 00:00,10.32,
2011-12-18 00:00,7.77,
2011-12-19 00:00,6.83,
2011-12-20 00:00,4.31,
2011-12-21 00:00,7.36,
2011-12-22 00:00,5.72,
2011-12-23 00:00,5.42,
2011-12-24 00:00,6.19,
2011-12-25 00:00,8.54,
2011-12-26 00:00,8.97,
2011-12-27 00:00,8.96,
2011-12-28 00:00,8.92,
2011-12-29 00:00,9.22,
2011-12-30 00:00,9.41,
2011-12-31 00:00,9.36,
2012-01-01 00:00,9.18,
2012-01-02 00:00,8.66,
2012-01-03 00:00,8.82,
2012-01-04 00:00,9.40,
2012-01-05 00:00,9.65,
2012-01-06 00:00,9.10,
2012-01-07 00:00,6.42,
2012-01-08 00:00,6.09,
2012-01-09 00:00,7.04,
2012-01-10 00:00,7.66,
2012-01-11 00:00,7.14,
2012-01-12 00:00,7.18,
2012-01-13 00:00,8.21,
2012-01-14 00:00,8.56,
2012-01-15 00:00,7.73,
2012-01-16 00:00,8.41,
2012-01-17 00:00,8.96,
2012-01-18 00:00,10.46,
2012-01-19 00:00,11.87,
2012-01-20 00:00,12.72,
2012-01-21 00:00,11.35,
2012-01-22 00:00,10.03,
2012-01-23 00:00,10.13,
2012-01-24 00:00,7.72,
2012-01-25 00:00,6.95,
2012-01-26 00:00,8.55,
2012-01-27 00:00,8.31,
2012-01-28 00:00,7.92,
2012-01-29 00:00,7.72,
2012-01-30 00:00,7.28,
2012-01-31 00:00,7.26,
2012-02-01 00:00,7.73,
2012-02-02 00:00,7.51,
2012-02-03 00:00,5.71,
2012-02-04 00:00,7.45,
2012-02-05 00:00,6.25,
2012-02-06 00:00,4.09,
2012-02-07 00:00,2.74,
2012-02-08 00:00,2.99,
2012-02-09 00:00,3.78,
2012-02-10 00:00,4.91,
2012-02-11 00:00,5.65,
2012-02-12 00:00,5.55,
2012-02-13 00:00,6.96,
2012-02-14 00:00,8.24,
2012-02-15 00:00,9.41,
2012-02-16 00:00,8.79,
2012-02-17 00:00,7.78,
2012-02-18 00:00,8.40,
2012-02-19 00:00,9.72,
2012-02-20 00:00,12.31,
2012-02-21 00:00,16.11,
2012-02-22 00:00,12.08,
2012-02-23 00:00,10.44,
2012-02-24 00:00,13.88,
2012-02-25 00:00,16.56,
2012-02-26 00:00,16.72,
2012-02-27 00:00,15.21,
2012-02-28 00:00,12.58,
2012-02-29 00:00,10.55,
2012-03-01 00:00,12.60,
2012-03-02 00:00,14.30,
2012-03-03 00:00,15.32,
2012-03-04 00:00,16.14,
2012-03-05 00:00,15.19,
2012-03-06 00:00,15.02,
2012-03-07 00:00,15.66,
2012-03-08 00:00,16.48,
2012-03-09 00:00,16.53,
2012-03-10 00:00,14.68,
2012-03-11 00:00,12.22,
2012-03-12 00:00,9.73,
2012-03-13 00:00,9.10,
2012-03-14 00:00,10.72,
2012-03-15 00:00,13.07,
2012-03-16 00:00,14.10,
2012-03-17 00:00,15.79,
2012-03-18 00:00,17.46,
2012-03-19 00:00,17.78,
2012-03-20 00:00,17.75,
2012-03-21 00:00,18.60,
2012-03-22 00:00,18.25,
2012-03-23 00:00,18.25,
2012-03-24 00:00,16.33,
2012-03-25 00:00,15.50,
2012-03-26 00:00,14.30,
2012-03-27 00:00,14.08,
2012-03-28 00:00,13.61,
2012-03-29 00:00,12.90,
2012-03-30 00:00,11.76,
2012-03-31 00:00,10.48,
2012-04-01 00:00,11.71,
2012-04-02 00:00,11.51,
2012-04-03 00:00,12.25,
2012-04-04 00:00,10.50,
2012-04-05 00:00,11.61,
2012-04-06 00:00,12.27,
2012-04-07 00:00,10.47,
2012-04-08 00:00,11.08,
2012-04-09 00:00,7.23,
2012-04-11 00:00,8.28,
2012-04-12 00:00,8.05,
2012-04-13 00:00,12.87,
2012-04-14 00:00,12.63,
2012-04-15 00:00,12.24,
2012-04-16 00:00,11.71,
2012-04-17 00:00,8.93,
2012-04-18 00:00,7.65,
2012-04-20 00:00,7.77,
2012-04-21 00:00,11.36,
2012-04-22 00:00,11.53,
2012-04-23 00:00,11.45,
2012-04-24 00:00,13.04,
2012-04-25 00:00,12.20,
2012-04-26 00:00,11.31,
2012-04-27 00:00,10.61,
2012-04-28 00:00,11.16,
2012-04-29 00:00,8.79,
2012-04-30 00:00,7.69,
2012-05-01 00:00,10.08,
2012-05-02 00:00,10.07,
2012-05-03 00:00,14.57,
2012-05-04 00:00,16.19,
2012-05-05 00:00,15.68,
2012-05-06 00:00,15.14,
2012-05-07 00:00,15.63,
2012-05-08 00:00,16.90,
2012-05-09 00:00,16.78,
2012-05-10 00:00,10.23,
2012-05-11 00:00,8.72,
2012-05-12 00:00,14.37,
2012-05-13 00:00,11.51,
2012-05-14 00:00,13.47,
2012-05-15 00:00,13.91,
2012-05-16 00:00,11.15,
2012-05-17 00:00,6.99,
2012-05-21 00:00,13.27,
2012-05-22 00:00,15.46,
2012-05-23 00:00,13.69,
2012-05-24 00:00,13.39,
2012-05-25 00:00,11.40,
2012-05-26 00:00,9.88,
2012-05-27 00:00,12.42,
2012-05-28 00:00,14.30,
2012-05-29 00:00,13.51,
2012-05-30 00:00,9.41,
2012-05-31 00:00,6.91,
2012-06-01 00:00,11.66,
2012-06-02 00:00,14.32,
2012-06-03 00:00,15.31,
2012-06-04 00:00,15.51,
2012-06-05 00:00,14.72,
2012-06-06 00:00,7.32,
2012-06-07 00:00,4.28,
2012-06-08 00:00,4.79,
2012-06-09 00:00,7.09,
2012-06-11 00:00,2.42,
2012-06-12 00:00,1.70,
2012-06-13 00:00,0.90,
2012-06-14 00:00,0.17,
2012-06-15 00:00,0.05,
2012-06-16 00:00,0.05,
2012-06-17 00:00,0.05,
2012-06-18 00:00,0.05,
2012-06-19 00:00,0.05,
2012-06-20 00:00,0.29,
2012-06-21 00:00,1.51,
2012-06-22 00:00,4.33,
2012-06-23 00:00,8.68,
2012-06-24 00:00,12.29,
2012-06-25 00:00,15.77,
2012-06-26 00:00,18.23,
2012-06-27 00:00,20.64,
2012-06-28 00:00,15.80,
2012-06-29 00:00,12.53,
2012-06-30 00:00,7.34,
2012-07-01 00:00,4.78,
2012-07-02 00:00,5.33,
2012-07-03 00:00,6.57,
2012-07-04 00:00,12.04,
2012-07-05 00:00,18.15,
2012-07-06 00:00,21.89,
2012-07-07 00:00,23.26,
2012-07-08 00:00,22.91,
2012-07-09 00:00,25.02,
2012-07-10 00:00,17.21,
2012-07-11 00:00,16.92,
2012-07-12 00:00,13.01,
2012-07-13 00:00,9.17,
2012-07-14 00:00,4.32,
2012-07-15 00:00,4.67,
2012-07-16 00:00,3.58,
2012-07-17 00:00,3.25,
2012-07-18 00:00,0.52,
2012-07-19 00:00,0.05,
2012-07-20 00:00,0.21,
2012-07-21 00:00,1.95,
2012-07-22 00:00,3.68,
2012-07-23 00:00,6.37,
2012-07-24 00:00,8.77,
2012-07-25 00:00,14.56,
2012-07-26 00:00,13.93,
2012-07-27 00:00,12.00,
2012-07-28 00:00,8.24,
2012-07-29 00:00,3.89,
2012-07-30 00:00,5.09,
2012-07-31 00:00,7.63,
2012-08-01 00:00,4.11,
2012-08-02 00:00,5.65,
2012-08-03 00:00,2.81,
2012-08-04 00:00,9.25,
2012-08-05 00:00,12.51,
2012-08-06 00:00,16.20,
2012-08-07 00:00,16.26,
2012-08-08 00:00,11.70,
2012-08-09 00:00,10.54,
2012-08-10 00:00,8.47,
2012-08-11 00:00,3.82,
2012-08-12 00:00,3.30,
2012-08-13 00:00,5.81,
2012-08-14 00:00,10.64,
2012-08-15 00:00,9.92,
2012-08-16 00:00,10.43,
2012-08-17 00:00,7.74,
2012-08-18 00:00,4.51,
2012-08-22 00:00,9.16,
